TimeCST,TemperatureF,Dew PointF,Humidity,Sea Level PressureIn,VisibilityMPH,Wind Direction,Wind SpeedMPH,Gust SpeedMPH,PrecipitationIn,Events,Conditions,WindDirDegrees,DateUTC
12:15 AM,69.8,53.6,56,29.72,10.0,SSW,12.7,18.4,N/A,,Clear,200,2011-11-14 06:15:00
12:35 AM,68.0,53.6,60,29.71,10.0,SSW,13.8,19.6,N/A,,Clear,200,2011-11-14 06:35:00
12:55 AM,68.0,53.6,60,29.71,10.0,SSW,13.8,21.9,N/A,,Clear,200,2011-11-14 06:55:00
1:15 AM,68.0,53.6,60,29.72,10.0,SSW,11.5,19.6,N/A,,Clear,200,2011-11-14 07:15:00
1:35 AM,68.0,53.6,60,29.71,10.0,South,12.7,20.7,N/A,,Clear,190,2011-11-14 07:35:00
1:55 AM,68.0,55.4,64,29.72,10.0,SSW,12.7,18.4,N/A,,Clear,200,2011-11-14 07:55:00
2:15 AM,66.2,55.4,68,29.72,10.0,SSW,12.7,18.4,N/A,,Clear,200,2011-11-14 08:15:00
2:35 AM,66.2,55.4,68,29.72,10.0,SSW,10.4,16.1,N/A,,Clear,200,2011-11-14 08:35:00
2:55 AM,66.2,55.4,68,29.72,10.0,SSW,13.8,-,N/A,,Clear,200,2011-11-14 08:55:00
3:15 AM,66.2,55.4,68,29.72,10.0,SSW,15.0,18.4,N/A,,Clear,200,2011-11-14 09:15:00
3:35 AM,66.2,55.4,68,29.72,10.0,SSW,11.5,17.3,N/A,,Clear,210,2011-11-14 09:35:00
3:55 AM,66.2,55.4,68,29.72,10.0,SSW,10.4,17.3,N/A,,Clear,210,2011-11-14 09:55:00
4:15 AM,66.2,57.2,73,29.73,10.0,SW,9.2,-,N/A,,Clear,220,2011-11-14 10:15:00
4:35 AM,64.4,57.2,77,29.74,10.0,SW,10.4,-,N/A,,Clear,220,2011-11-14 10:35:00
4:55 AM,64.4,57.2,77,29.74,10.0,SSW,9.2,-,N/A,,Clear,210,2011-11-14 10:55:00
5:15 AM,64.4,57.2,77,29.74,10.0,SSW,6.9,-,N/A,,Clear,210,2011-11-14 11:15:00
5:35 AM,64.4,57.2,77,29.74,10.0,SW,6.9,-,N/A,,Clear,220,2011-11-14 11:35:00
6:55 AM,62.6,57.2,82,29.77,10.0,Calm,Calm,-,N/A,,Clear,0,2011-11-14 12:55:00
7:55 AM,62.6,57.2,82,29.80,10.0,Calm,Calm,-,N/A,,Clear,0,2011-11-14 13:55:00
8:55 AM,69.8,57.2,64,29.82,10.0,SSW,10.4,-,N/A,,Clear,210,2011-11-14 14:55:00
10:55 AM,75.2,53.6,47,29.82,10.0,WSW,10.4,17.3,N/A,,Clear,240,2011-11-14 16:55:00
12:55 PM,77.0,51.8,41,29.77,10.0,West,10.4,-,N/A,,Clear,260,2011-11-14 18:55:00
3:55 PM,71.6,53.6,53,29.76,10.0,NNW,15.0,-,N/A,,Clear,330,2011-11-14 21:55:00
4:55 PM,66.2,50.0,56,29.75,10.0,North,5.8,-,N/A,,Clear,10,2011-11-14 22:55:00
5:55 PM,64.4,50.0,59,29.76,10.0,East,8.1,-,N/A,,Clear,90,2011-11-14 23:55:00
8:55 PM,62.6,48.2,59,29.78,10.0,Calm,Calm,-,N/A,,Clear,0,2011-11-15 02:55:00
9:15 PM,60.8,46.4,59,29.76,7.0,ESE,3.5,-,N/A,,Clear,110,2011-11-15 03:15:00
9:35 PM,60.8,46.4,59,29.76,10.0,Calm,Calm,-,N/A,,Clear,0,2011-11-15 03:35:00
9:55 PM,60.8,46.4,59,29.76,10.0,Calm,Calm,-,N/A,,Clear,0,2011-11-15 03:55:00
10:15 PM,60.8,48.2,63,29.77,10.0,Calm,Calm,-,N/A,,Clear,0,2011-11-15 04:15:00
10:35 PM,60.8,48.2,63,29.76,10.0,SSE,3.5,-,N/A,,Clear,150,2011-11-15 04:35:00
10:50 PM,60.8,46.4,59,29.76,10.0,Calm,Calm,-,N/A,,Clear,0,2011-11-15 04:50:00
10:55 PM,59.0,46.4,63,29.76,10.0,Calm,Calm,-,N/A,,Clear,0,2011-11-15 04:55:00
11:15 PM,59.0,46.4,63,29.76,10.0,Calm,Calm,-,N/A,,Scattered Clouds,0,2011-11-15 05:15:00
11:35 PM,60.8,46.4,59,29.76,10.0,Calm,Calm,-,N/A,,Scattered Clouds,0,2011-11-15 05:35:00
11:55 PM,59.0,48.2,67,29.76,10.0,Calm,Calm,-,N/A,,Scattered Clouds,0,2011-11-15 05:55:00